This demonstration page uses our WeatherBlox Daily Observations layout. Learn more.

Left ArrowRight Arrow

40.92945, -100.16068

Hourly Observations for May 8, 2015

Temp ( °F °C ) Dew Point ( °F °C ) Humidity (%) Winds ( mph kmh ) Pressure ( in mb ) Visibility ( mi km ) Precip ( " mm )
12:15 am 00:15 Cloudy 53 11.5 46 7.7 78 78 N 10 17 30.03 1017 10 16.0934 N/A
12:35 am 00:35 Cloudy 53 11.5 46 7.8 78 78 N 13 20 30.03 1017 10 16.0934 N/A
12:55 am 00:55 Cloudy 52 11.1 46 8 81 81 NNE 12 19 30.03 1017 10 16.0934 N/A
1:15 am 01:15 Cloudy 51 10.6 46 7.7 82 82 NNE 10 17 30.03 1017 10 16.0934 N/A
1:35 am 01:35 Cloudy 51 10.5 46 7.7 83 83 NNE 12 19 30.03 1017 10 16.0934 N/A
1:55 am 01:55 Mostly Cloudy 50 10.1 46 7.6 85 85 N 9 15 30.06 1018 10 16.0934 N/A
2:15 am 02:15 Partly Cloudy 49 9.5 45 7 85 85 N 7 11 30.06 1018 10 16.0934 N/A
2:35 am 02:35 Clear 47 8.6 44 6.6 87 87 N 7 11 30.06 1018 10 16.0934 N/A
2:55 am 02:55 Clear 47 8.5 44 6.6 88 88 N 5 7 30.06 1018 10 16.0934 N/A
3:15 am 03:15 Partly Cloudy 47 8.2 44 6.6 90 90 N 3 6 30.06 1018 10 16.0934 N/A
3:35 am 03:35 Mostly Cloudy 46 7.7 43 6.2 90 90 NNW 5 7 30.06 1018 10 16.0934 N/A
3:55 am 03:55 Partly Cloudy 46 7.5 43 6.2 92 92 NNW 5 7 30.06 1018 10 16.0934 N/A
4:15 am 04:15 Clear 45 7.1 43 6 93 93 N N/A 30.09 1019 10 16.0934 N/A
4:35 am 04:35 Clear 44 6.9 42 5.6 92 92 N N/A 30.09 1019 10 16.0934 N/A
4:55 am 04:55 Clear 45 7.4 43 6.2 92 92 N N/A 30.09 1019 10 16.0934 N/A
5:15 am 05:15 Clear 45 7 43 5.9 93 93 WNW 3 6 30.09 1019 10 16.0934 N/A
5:35 am 05:35 Clear 43 6.3 41 5.2 93 93 WNW 5 7 30.09 1019 10 16.0934 N/A
5:55 am 05:55 Clear 43 6.1 41 5.1 93 93 NW 7 11 30.09 1019 10 16.0934 N/A
6:15 am 06:15 Clear 42 5.6 40 4.7 94 94 NW 7 11 30.09 1019 10 16.0934 N/A
6:35 am 06:35 Mostly Cloudy 44 6.6 43 5.9 95 95 NW 6 9 30.09 1019 10 16.0934 N/A
6:55 am 06:55 Mostly Cloudy 45 7 43 6.1 94 94 N N/A 30.09 1019 10 16.0934 N/A
7:15 am 07:15 Partly Cloudy 46 7.5 44 6.6 94 94 N N/A 30.09 1019 10 16.0934 N/A
7:35 am 07:35 Mostly Cloudy 48 8.7 46 7.7 94 94 NNW 6 9 30.09 1019 10 16.0934 N/A
7:55 am 07:55 Cloudy 49 9.2 46 7.8 91 91 N 3 6 30.09 1019 10 16.0934 N/A
8:15 am 08:15 Cloudy 50 10 46 7.9 87 87 N 3 6 30.12 1020 10 16.0934 N/A
8:35 am 08:35 Cloudy 51 10.3 47 8.1 86 86 NE 3 6 30.12 1020 10 16.0934 N/A
8:55 am 08:55 Mostly Cloudy 53 11.4 46 8 80 80 ENE 10 17 30.09 1019 10 16.0934 N/A
9:15 am 09:15 Mostly Cloudy 53 11.8 46 7.9 77 77 E 7 11 30.09 1019 10 16.0934 N/A
9:35 am 09:35 Cloudy 54 12.3 45 7.4 72 72 NE 8 13 30.09 1019 10 16.0934 N/A
9:55 am 09:55 Mostly Cloudy 54 12.1 45 7.3 73 73 ENE 9 15 30.09 1019 10 16.0934 N/A
10:15 am 10:15 Partly Cloudy 55 13 45 7.3 69 69 E 10 17 30.09 1019 10 16.0934 N/A
10:35 am 10:35 Partly Cloudy 55 13 45 7.2 68 68 ENE 12 19 30.06 1018 10 16.0934 N/A
10:55 am 10:55 Partly Cloudy 57 13.7 45 7.4 66 66 ENE 13 20 30.03 1017 10 16.0934 N/A
11:15 am 11:15 Sunny 57 13.9 45 7.1 64 64 ENE 10 17 30.03 1017 10 16.0934 N/A
11:35 am 11:35 Sunny 59 14.8 46 7.5 62 62 ENE 14 22 30.03 1017 10 16.0934 N/A
11:55 am 11:55 Sunny 58 14.4 45 7.2 62 62 ENE 12 19 30.03 1017 10 16.0934 N/A
12:15 pm 12:15 Partly Cloudy 59 14.9 46 7.7 62 62 NE 10 17 30.03 1017 10 16.0934 N/A
12:35 pm 12:35 Partly Cloudy 60 15.5 46 8 61 61 NE 9 15 30.03 1017 10 16.0934 N/A
12:55 pm 12:55 Sunny 61 15.9 46 8 60 60 NNE 9 15 30 1016 10 16.0934 N/A
1:15 pm 13:15 Sunny 61 16.2 46 7.9 58 58 E 9 15 30 1016 10 16.0934 N/A
1:35 pm 13:35 Sunny 62 16.5 46 7.8 57 57 NE 8 13 29.97 1015 10 16.0934 N/A
1:55 pm 13:55 Sunny 62 16.7 46 7.9 56 56 NE 13 20 29.97 1015 10 16.0934 N/A
2:15 pm 14:15 Sunny 64 17.5 47 8.5 56 56 NNE 9 15 29.97 1015 10 16.0934 N/A
2:35 pm 14:35 Sunny 64 17.8 48 8.9 56 56 E 9 15 29.97 1015 10 16.0934 N/A
2:55 pm 14:55 Sunny 64 18 47 8.4 54 54 E 7 11 29.97 1015 10 16.0934 N/A
3:15 pm 15:15 Sunny 64 18 47 8.1 53 53 E 8 13 29.97 1015 10 16.0934 N/A
3:35 pm 15:35 Sunny 66 19 48 8.8 52 52 E 8 13 29.97 1015 10 16.0934 N/A
3:55 pm 15:55 Sunny 65 18.6 45 7.4 48 48 E 8 13 29.97 1015 10 16.0934 N/A
4:15 pm 16:15 Sunny 66 18.8 45 7.4 48 48 E 8 13 29.97 1015 10 16.0934 N/A
4:35 pm 16:35 Partly Cloudy 66 18.7 46 7.7 49 49 E 10 17 29.97 1015 10 16.0934 N/A
4:55 pm 16:55 Partly Cloudy 66 19.1 46 7.8 48 48 ESE 8 13 29.94 1014 10 16.0934 N/A
5:15 pm 17:15 Partly Cloudy 66 18.8 46 7.7 49 49 ENE 7 11 29.94 1014 10 16.0934 N/A
5:35 pm 17:35 Sunny 66 19 44 6.9 46 46 ENE 10 17 29.94 1014 10 16.0934 N/A
5:55 pm 17:55 Sunny 66 18.9 44 6.6 45 45 E 12 19 29.94 1014 10 16.0934 N/A
6:15 pm 18:15 Sunny 65 18.3 44 6.4 46 46 ENE 13 20 29.91 1013 10 16.0934 N/A
6:35 pm 18:35 Sunny 66 18.7 44 6.4 45 45 ENE 9 15 29.91 1013 10 16.0934 N/A
6:55 pm 18:55 Sunny 64 18 44 6.9 48 48 E 9 15 29.91 1013 10 16.0934 N/A
7:15 pm 19:15 Sunny 64 18 44 6.9 48 48 E 13 20 29.94 1014 10 16.0934 N/A
7:35 pm 19:35 Partly Cloudy 64 17.6 45 7.1 50 50 E 9 15 29.94 1014 10 16.0934 N/A
7:55 pm 19:55 Partly Cloudy 63 17.4 45 7.4 52 52 ESE 8 13 29.97 1015 10 16.0934 N/A
8:15 pm 20:15 Partly Cloudy 63 17 47 8.2 56 56 ESE 12 19 29.94 1014 10 16.0934 N/A
8:35 pm 20:35 Partly Cloudy 61 16.3 47 8.6 61 61 E 8 13 30 1016 10 16.0934 N/A
8:55 pm 20:55 Partly Cloudy 60 15.8 48 8.9 64 64 E 13 20 30 1016 10 16.0934 N/A
9:15 pm 21:15 Mostly Cloudy 60 15.5 48 9 65 65 ESE 10 17 30 1016 10 16.0934 N/A
9:35 pm 21:35 Partly Cloudy 59 15 49 9.5 70 70 ESE 9 15 29.97 1015 10 16.0934 N/A
9:55 pm 21:55 Clear 58 14.5 50 10.1 75 75 E 10 17 30 1016 10 16.0934 N/A
10:15 pm 22:15 Clear 57 13.9 50 10.1 78 78 E 12 19 30 1016 10 16.0934 N/A
10:35 pm 22:35 Clear 56 13.6 50 10.1 80 80 ESE 12 19 30 1016 10 16.0934 N/A
10:55 pm 22:55 Mostly Cloudy 57 13.7 51 10.3 80 80 ESE 10 17 30 1016 10 16.0934 N/A
11:15 pm 23:15 Cloudy 57 13.7 50 10.2 80 80 ESE 12 19 30 1016 10 16.0934 N/A
11:35 pm 23:35 Cloudy 56 13.5 50 10.1 80 80 ESE 12 19 30 1016 10 16.0934 N/A
11:55 pm 23:55 Cloudy 56 13.1 49 9.7 80 80 E 12 19 30.03 1017 10 16.0934 N/A

Powered by AerisWeather